Onweer radar Meer informatie blitzortung!


Regen radar Meer informatie rain snow radar


Bezoek onze andere websites:


Het weer levert geen direct gevaar op.    Er zijn geen waarschuwingen afgegeven.

Select another period ( hide this area )

Eenheden Periode Custom range Directly to
Metrisch Engels Beide
Dagelijkse Wekelijkse Maandelijkse Jaarlijkse
use both date-selectors for a custom range
previous Dag
With this date

WeatherUnderground graphs for this period ( click here )


Dagelijkse Samenvatting Zondag 08 december 2019
Tijd Temp. ( °C ) Dew pt. ( °C ) Wind ( km/h ) van Windvlaag ( km/h ) Luchtdruk ( hPa ) Humid.( % ) Rainrate ( cm )
Hoog10,3 8,3 24,1 ZW ( 233/1046 ) 38,6 1010,0 91 0,80
Gemiddeld9,9 7,2 11,8 WZW #19/89 30,1 1005,1 84 1,30
Laag9,3 6,5 4,8   19,3 999,2 80 -
Dagelijkse Tabular details for Zondag 08 december 2019
Tijd Temp. ( °C ) Dew pt. ( °C ) Wind ( km/h ) van Windvlaag ( km/h ) Luchtdruk ( hPa ) Humid.( % ) Rainrate ( cm )
00:02 9,9 7,1 11,3 WZW 19,3 1010,0 83 -
00:07 9,9 7,1 9,7 Westen 22,5 1009,7 83 -
00:12 9,9 7,1 8,0 ZZW 22,5 1009,4 83 -
00:17 9,9 7,1 9,7 ZZW 22,5 1009,4 83 -
00:22 9,9 7,1 6,4 WZW 24,1 1009,4 83 -
00:27 9,9 7,1 12,9 Westen 24,1 1009,0 83 -
00:32 9,9 7,1 9,7 ZZW 24,1 1009,0 83 -
00:37 9,9 7,1 12,9 ZZW 24,1 1009,0 83 -
00:42 9,8 7,1 8,0 WZW 24,1 1009,0 83 -
00:47 9,8 7,1 6,4 Westen 24,1 1008,7 83 -
00:52 9,8 7,1 9,7 NNW 25,7 1008,4 83 -
00:57 9,8 7,1 11,3 Zuiden 25,7 1008,4 83 -
01:02 9,9 7,1 14,5 Westen 25,7 1008,7 83 -
01:07 9,9 7,1 6,4 Westen 24,1 1008,4 83 -
01:12 9,9 7,1 4,8 ZO 24,1 1008,4 83 -
01:17 9,9 7,1 9,7 WZW 20,9 1008,4 83 -
01:22 9,9 7,1 20,9 Zuiden 19,3 1008,4 83 -
01:27 9,9 7,1 11,3 ZO 25,7 1008,0 83 -
01:32 9,8 7,1 12,9 ZZW 25,7 1007,7 83 -
01:37 9,8 7,1 9,7 Westen 32,2 1007,7 83 -
01:42 9,7 7,1 14,5 ZW 32,2 1007,7 84 -
01:47 9,7 7,1 12,9 Zuiden 32,2 1007,7 84 -
01:52 9,7 7,0 11,3 ZZW 32,2 1007,7 83 -
01:57 9,7 7,0 6,4 ZW 24,1 1007,3 83 -
02:02 9,7 7,0 11,3 WNW 24,1 1007,3 83 -
02:07 9,7 6,8 8,0 ZW 24,1 1007,3 82 -
02:12 9,7 6,8 14,5 WZW 33,8 1007,3 82 -
02:17 9,7 6,8 8,0 ZZW 33,8 1007,0 82 -
02:22 9,7 6,8 8,0 ZZW 33,8 1007,0 82 -
02:27 9,7 6,6 8,0 WNW 25,7 1007,0 81 -
02:32 9,7 6,6 6,4 Westen 24,1 1006,7 81 -
02:37 9,7 6,6 4,8 WZW 24,1 1006,7 81 -
02:42 9,7 6,6 16,1 ZZW 32,2 1006,7 81 -
02:47 9,7 6,6 8,0 Zuiden 32,2 1006,7 81 -
02:52 9,7 6,6 8,0 WZW 32,2 1006,7 81 -
02:57 9,7 6,6 8,0 WNW 20,9 1006,7 81 -
03:02 9,7 6,6 6,4 ZZO 29,0 1006,7 81 -
03:07 9,7 6,6 6,4 WZW 29,0 1006,3 81 -
03:12 9,7 6,6 11,3 ZZO 29,0 1006,3 81 -
03:17 9,7 6,6 4,8 WZW 25,7 1006,3 81 -
03:22 9,7 6,6 16,1 ZZW 30,6 1006,3 81 -
03:27 9,7 6,6 9,7 WNW 33,8 1006,0 81 -
03:32 9,8 6,7 8,0 WZW 33,8 1006,0 81 -
03:37 9,8 6,7 19,3 ZW 33,8 1005,6 81 -
03:42 9,8 6,5 12,9 Westen 25,7 1005,6 80 -
03:47 9,9 6,6 16,1 WZW 25,7 1005,3 80 -
03:52 9,8 6,7 9,7 ZZO 25,7 1005,0 81 -
03:57 9,8 6,7 12,9 WNW 29,0 1005,0 81 -
04:02 9,9 6,8 8,0 Westen 29,0 1004,6 81 -
04:07 9,9 6,8 11,3 ZW 35,4 1004,6 81 -
04:12 9,9 7,0 9,7 ONO 35,4 1004,6 82 -
04:17 10,0 7,1 17,7 ZZW 35,4 1004,3 82 -
04:22 10,0 7,1 6,4 WZW 29,0 1004,3 82 -
04:27 10,0 7,1 11,3 WZW 29,0 1004,3 82 -
04:32 10,0 7,2 11,3 ZW 32,2 1003,9 83 -
04:37 10,1 7,3 9,7 Noorden 35,4 1003,9 83 -
04:42 10,0 7,2 12,9 ZW 35,4 1003,9 83 -
04:47 10,0 7,4 8,0 WNW 35,4 1003,6 84 -
04:52 10,0 7,4 17,7 ZW 35,4 1003,6 84 -
04:57 10,0 7,4 12,9 Westen 29,0 1003,3 84 -
05:02 10,0 7,4 19,3 WZW 29,0 1003,3 84 -
05:07 10,0 7,4 16,1 ZW 33,8 1002,9 84 -
05:12 10,0 7,4 11,3 WZW 33,8 1002,9 84 -
05:17 10,0 7,4 17,7 Westen 33,8 1002,6 84 -
05:22 10,1 7,5 20,9 ZW 33,8 1002,9 84 -
05:27 10,1 7,5 9,7 Westen 33,8 1002,9 84 -
05:32 10,2 7,6 11,3 ZW 32,2 1002,9 84 -
05:37 10,2 7,6 14,5 ZZW 32,2 1002,6 84 -
05:42 10,2 7,6 8,0 Westen 32,2 1002,3 84 -
05:47 10,3 7,7 4,8 Westen 25,7 1002,3 84 -
05:52 10,3 7,9 16,1 ZW 38,6 1002,3 85 -
05:57 10,3 7,9 12,9 WZW 38,6 1002,3 85 -
06:02 10,3 7,9 16,1 WZW 38,6 1002,3 85 -
06:07 10,3 7,9 9,7 ZW 32,2 1001,9 85 -
06:12 10,3 7,9 11,3 NNW 32,2 1001,9 85 -
06:17 10,3 8,1 16,1 Westen 32,2 1001,9 86 -
06:22 10,3 8,1 9,7 WNW 38,6 1001,6 86 -
06:27 10,2 8,1 24,1 ZW 38,6 1001,6 87 -
06:32 10,1 8,2 20,9 ZZO 38,6 1001,6 88 -
06:37 10,0 8,3 12,9 WZW 38,6 1001,6 89 -
06:42 9,9 8,2 24,1 ZW 30,6 1000,6 89 -
06:47 9,7 8,1 16,1 ZZW 30,6 999,9 90 -
06:52 9,6 8,2 12,9 Westen 37,0 999,5 91 0,50
06:57 9,5 8,1 24,1 OZO 37,0 999,2 91 0,50
07:02 9,4 8,0 11,3 NO 32,2 999,2 91 0,50
07:07 9,3 7,9 9,7 WZW 32,2 1000,9 91 0,50
07:12 9,3 7,9 16,1 ZZW 33,8 1000,9 91 0,80
07:17 9,3 7,9 9,7 ZW 33,8 1000,9 91 0,80
07:22 9,3 7,9 8,0 NNO 32,2 1000,9 91 0,80
Dagelijkse Samenvatting Zondag 08 december 2019
Tijd Temp. ( °C ) Dew pt. ( °C ) Wind ( km/h ) van Windvlaag ( km/h ) Luchtdruk ( hPa ) Humid.( % ) Rainrate ( cm )
Hoog10,3 8,3 24,1 ZW ( 233/1046 ) 38,6 1010,0 91 0,80
Gemiddeld9,9 7,2 11,8 WZW #19/89 30,1 1005,1 84 1,30
Laag9,3 6,5 4,8   19,3 999,2 80 -
Dagelijkse Tabular details for Zondag 08 december 2019
Tijd Temp. ( °C ) Dew pt. ( °C ) Wind ( km/h ) van Windvlaag ( km/h ) Luchtdruk ( hPa ) Humid.( % ) Rainrate ( cm )
00:02 9,9 7,1 11,3 WZW 19,3 1010,0 83 -
00:07 9,9 7,1 9,7 Westen 22,5 1009,7 83 -
00:12 9,9 7,1 8,0 ZZW 22,5 1009,4 83 -
00:17 9,9 7,1 9,7 ZZW 22,5 1009,4 83 -
00:22 9,9 7,1 6,4 WZW 24,1 1009,4 83 -
00:27 9,9 7,1 12,9 Westen 24,1 1009,0 83 -
00:32 9,9 7,1 9,7 ZZW 24,1 1009,0 83 -
00:37 9,9 7,1 12,9 ZZW 24,1 1009,0 83 -
00:42 9,8 7,1 8,0 WZW 24,1 1009,0 83 -
00:47 9,8 7,1 6,4 Westen 24,1 1008,7 83 -
00:52 9,8 7,1 9,7 NNW 25,7 1008,4 83 -
00:57 9,8 7,1 11,3 Zuiden 25,7 1008,4 83 -
01:02 9,9 7,1 14,5 Westen 25,7 1008,7 83 -
01:07 9,9 7,1 6,4 Westen 24,1 1008,4 83 -
01:12 9,9 7,1 4,8 ZO 24,1 1008,4 83 -
01:17 9,9 7,1 9,7 WZW 20,9 1008,4 83 -
01:22 9,9 7,1 20,9 Zuiden 19,3 1008,4 83 -
01:27 9,9 7,1 11,3 ZO 25,7 1008,0 83 -
01:32 9,8 7,1 12,9 ZZW 25,7 1007,7 83 -
01:37 9,8 7,1 9,7 Westen 32,2 1007,7 83 -
01:42 9,7 7,1 14,5 ZW 32,2 1007,7 84 -
01:47 9,7 7,1 12,9 Zuiden 32,2 1007,7 84 -
01:52 9,7 7,0 11,3 ZZW 32,2 1007,7 83 -
01:57 9,7 7,0 6,4 ZW 24,1 1007,3 83 -
02:02 9,7 7,0 11,3 WNW 24,1 1007,3 83 -
02:07 9,7 6,8 8,0 ZW 24,1 1007,3 82 -
02:12 9,7 6,8 14,5 WZW 33,8 1007,3 82 -
02:17 9,7 6,8 8,0 ZZW 33,8 1007,0 82 -
02:22 9,7 6,8 8,0 ZZW 33,8 1007,0 82 -
02:27 9,7 6,6 8,0 WNW 25,7 1007,0 81 -
02:32 9,7 6,6 6,4 Westen 24,1 1006,7 81 -
02:37 9,7 6,6 4,8 WZW 24,1 1006,7 81 -
02:42 9,7 6,6 16,1 ZZW 32,2 1006,7 81 -
02:47 9,7 6,6 8,0 Zuiden 32,2 1006,7 81 -
02:52 9,7 6,6 8,0 WZW 32,2 1006,7 81 -
02:57 9,7 6,6 8,0 WNW 20,9 1006,7 81 -
03:02 9,7 6,6 6,4 ZZO 29,0 1006,7 81 -
03:07 9,7 6,6 6,4 WZW 29,0 1006,3 81 -
03:12 9,7 6,6 11,3 ZZO 29,0 1006,3 81 -
03:17 9,7 6,6 4,8 WZW 25,7 1006,3 81 -
03:22 9,7 6,6 16,1 ZZW 30,6 1006,3 81 -
03:27 9,7 6,6 9,7 WNW 33,8 1006,0 81 -
03:32 9,8 6,7 8,0 WZW 33,8 1006,0 81 -
03:37 9,8 6,7 19,3 ZW 33,8 1005,6 81 -
03:42 9,8 6,5 12,9 Westen 25,7 1005,6 80 -
03:47 9,9 6,6 16,1 WZW 25,7 1005,3 80 -
03:52 9,8 6,7 9,7 ZZO 25,7 1005,0 81 -
03:57 9,8 6,7 12,9 WNW 29,0 1005,0 81 -
04:02 9,9 6,8 8,0 Westen 29,0 1004,6 81 -
04:07 9,9 6,8 11,3 ZW 35,4 1004,6 81 -
04:12 9,9 7,0 9,7 ONO 35,4 1004,6 82 -
04:17 10,0 7,1 17,7 ZZW 35,4 1004,3 82 -
04:22 10,0 7,1 6,4 WZW 29,0 1004,3 82 -
04:27 10,0 7,1 11,3 WZW 29,0 1004,3 82 -
04:32 10,0 7,2 11,3 ZW 32,2 1003,9 83 -
04:37 10,1 7,3 9,7 Noorden 35,4 1003,9 83 -
04:42 10,0 7,2 12,9 ZW 35,4 1003,9 83 -
04:47 10,0 7,4 8,0 WNW 35,4 1003,6 84 -
04:52 10,0 7,4 17,7 ZW 35,4 1003,6 84 -
04:57 10,0 7,4 12,9 Westen 29,0 1003,3 84 -
05:02 10,0 7,4 19,3 WZW 29,0 1003,3 84 -
05:07 10,0 7,4 16,1 ZW 33,8 1002,9 84 -
05:12 10,0 7,4 11,3 WZW 33,8 1002,9 84 -
05:17 10,0 7,4 17,7 Westen 33,8 1002,6 84 -
05:22 10,1 7,5 20,9 ZW 33,8 1002,9 84 -
05:27 10,1 7,5 9,7 Westen 33,8 1002,9 84 -
05:32 10,2 7,6 11,3 ZW 32,2 1002,9 84 -
05:37 10,2 7,6 14,5 ZZW 32,2 1002,6 84 -
05:42 10,2 7,6 8,0 Westen 32,2 1002,3 84 -
05:47 10,3 7,7 4,8 Westen 25,7 1002,3 84 -
05:52 10,3 7,9 16,1 ZW 38,6 1002,3 85 -
05:57 10,3 7,9 12,9 WZW 38,6 1002,3 85 -
06:02 10,3 7,9 16,1 WZW 38,6 1002,3 85 -
06:07 10,3 7,9 9,7 ZW 32,2 1001,9 85 -
06:12 10,3 7,9 11,3 NNW 32,2 1001,9 85 -
06:17 10,3 8,1 16,1 Westen 32,2 1001,9 86 -
06:22 10,3 8,1 9,7 WNW 38,6 1001,6 86 -
06:27 10,2 8,1 24,1 ZW 38,6 1001,6 87 -
06:32 10,1 8,2 20,9 ZZO 38,6 1001,6 88 -
06:37 10,0 8,3 12,9 WZW 38,6 1001,6 89 -
06:42 9,9 8,2 24,1 ZW 30,6 1000,6 89 -
06:47 9,7 8,1 16,1 ZZW 30,6 999,9 90 -
06:52 9,6 8,2 12,9 Westen 37,0 999,5 91 0,50
06:57 9,5 8,1 24,1 OZO 37,0 999,2 91 0,50
07:02 9,4 8,0 11,3 NO 32,2 999,2 91 0,50
07:07 9,3 7,9 9,7 WZW 32,2 1000,9 91 0,50
07:12 9,3 7,9 16,1 ZZW 33,8 1000,9 91 0,80
07:17 9,3 7,9 9,7 ZW 33,8 1000,9 91 0,80
07:22 9,3 7,9 8,0 NNO 32,2 1000,9 91 0,80

Download your copy of this data-set  here

Our weather-data as stored at Weather Underground. Script ontwikkeld door Jim McMurry. Aangepast voor de template door Leuven-Template.eu

U vindt ons ook hier:

Weather Underground

Apparatuur in gebruik:

Weerstation
Davis VP2

Weerprogramma
Meteohub

Weercomputer
Raspberry Pi

Webleverancier
My provider

Davis VP2

Meteohub

Raspberry Pi

My provider